[[{"header":{"parameterUnit":"m.s-1","parameterCategory":1,"la1":30.2991,"la2":30.254,"lo1":-89.0895,"lo2":-89.0444,"dy":0.0017,"dx":0.0017,"nx":28,"ny":28,"refTime":"2024-03-28T03:00:00:Z","depth":0,"parameterNumber":2,"parameterNumberName":"U-component_of_WINDS"},"data":[0,0,0,0,0,0,0,0,0,0,0,0,0,0,0,0,0,0,0,0,0,0,0,0,0,0,0,0,0,0,0,0,0,0,0,0,0,0,0,0,0,0,0,0,0,0,0,0,0,0,0,0,0,0,0,0,0,0,-0.0558,-0.0558,0,-0.0512,-0.0511,-0.0511,-0.0523,-0.0524,-0.0524,-0.0525,-0.0476,-0.0474,-0.0471,0,0,0,0,0,0,0,0,0,0,0,0,0,-0.0653,-0.0652,-0.0558,-0.0558,-0.0557,-0.0512,-0.0511,-0.0511,-0.0522,-0.0524,-0.0525,-0.0526,-0.0476,-0.0474,-0.0471,0,0,0,0,0,0,0,0,0,0,0,0,0,-0.061,-0.0651,-0.0558,-0.0558,-0.0557,-0.0512,-0.0511,-0.051,-0.0522,-0.0524,-0.0525,-0.0526,-0.0477,-0.0474,-0.0471,-0.0423,0,0,-0.0461,-0.0459,0,0,0,0,0,0,0,0,-0.0612,-0.0607,-0.0558,-0.0558,-0.0557,-0.0525,-0.0527,-0.0481,-0.0522,-0.0535,-0.0525,-0.0527,-0.0491,-0.0486,-0.0475,-0.0421,-0.0419,-0.0461,-0.0459,-0.0457,-0.0456,0,0,0,0,0,0,0,-0.0615,-0.0609,-0.054,-0.0558,-0.0557,-0.0558,-0.0554,-0.0518,-0.0506,-0.0534,-0.0535,-0.053,-0.0491,-0.0478,-0.0473,-0.0418,-0.0461,-0.0458,-0.0456,-0.0454,-0.032,-0.0318,0,0,0,0,0,0,-0.0619,-0.0611,-0.0541,-0.0538,-0.0589,-0.0556,-0.055,-0.0533,-0.0506,-0.0503,-0.0528,-0.053,-0.0483,-0.0477,-0.0472,-0.0412,-0.0457,-0.0454,-0.0452,-0.0321,-0.0319,-0.0318,0,0,0,0,0,0,-0.0621,-0.0613,-0.0543,-0.0575,-0.0566,-0.0552,-0.0533,-0.0532,-0.0519,-0.0502,-0.0499,-0.0518,-0.0483,-0.0476,-0.0435,-0.0411,-0.0453,-0.045,-0.0323,-0.0321,-0.0319,-0.0294,0,0,0,0,0,0,-0.0624,-0.0614,-0.0596,-0.0574,-0.0564,-0.0508,-0.0532,-0.053,-0.0514,-0.0516,-0.0491,-0.0488,-0.0484,-0.0439,-0.0431,-0.0407,-0.0447,-0.0325,-0.0322,-0.0319,-0.0297,-0.0291,-0.0286,0,0,0,0,0,-0.0628,-0.0591,-0.0596,-0.0587,-0.0543,-0.0506,-0.0501,-0.0497,-0.0512,-0.0493,-0.0482,-0.0489,-0.0415,-0.0435,-0.0426,-0.04,-0.0327,-0.0323,-0.032,-0.0299,-0.0292,-0.0286,0,0,0,0,0,0,-0.0611,-0.0589,-0.0593,-0.0549,-0.0529,-0.0509,-0.0485,-0.049,-0.0465,-0.0468,-0.0464,-0.0458,-0.0415,-0.0404,-0.0427,-0.0351,-0.0373,-0.0367,-0.036,-0.0353,-0.0348,-0.0351,-0.0444,0,0,0,0,0,-0.0602,-0.0575,-0.0557,-0.052,-0.051,-0.0499,-0.0484,-0.0482,-0.0462,-0.0453,-0.0439,-0.0418,-0.039,-0.0371,-0.0344,-0.0295,-0.0289,-0.0273,-0.0268,-0.0263,-0.0258,-0.0229,-0.0221,-0.0306,-0.0306,-0.0306,0,0,-0.0583,-0.0568,-0.0551,-0.0516,-0.0501,-0.0472,-0.0492,-0.0462,-0.044,-0.0448,-0.0408,-0.0396,-0.0373,-0.0326,-0.0305,-0.0316,-0.0233,-0.0259,-0.0255,-0.0252,-0.0224,-0.0216,-0.0209,-0.0303,-0.0304,-0.0304,0,0,-0.0534,-0.0521,-0.0488,-0.0472,-0.0449,-0.0441,-0.0433,-0.0411,-0.0404,-0.0363,-0.0369,-0.0342,-0.0294,-0.0276,-0.0261,-0.0203,-0.0208,-0.0195,-0.0166,-0.0138,-0.0131,-0.0125,-0.0102,-0.0095,-0.019,-0.019,-0.019,0,-0.0514,-0.0472,-0.047,-0.0438,-0.0421,-0.0428,-0.0393,-0.0378,-0.0346,-0.0334,-0.0346,-0.0285,-0.0269,-0.0218,-0.0204,-0.0192,-0.0181,-0.0197,-0.0132,-0.0126,-0.0121,-0.0099,-0.0091,-0.0188,-0.0188,-0.0188,-0.0189,0,-0.0447,-0.0417,-0.0393,-0.0363,-0.0343,-0.031,-0.0301,-0.0282,-0.0282,-0.0273,-0.023,-0.0212,-0.018,-0.0168,-0.0168,-0.0116,-0.0123,-0.0134,-0.0155,-0.0111,-0.009,-0.0082,-0.0186,-0.0186,-0.0187,-0.0187,0,0,-0.0386,-0.0355,-0.0345,-0.0331,-0.0305,-0.0282,-0.0248,-0.0217,-0.02,-0.0178,-0.0148,-0.0106,-0.0116,-0.0098,-0.0096,-0.0071,-0.0024,-0.0084,-0.0084,-0.0072,0.0037,0.0046,0.0056,-0.0027,-0.0026,-0.0025,0.0036,0,-0.0334,-0.0275,-0.0271,-0.0218,-0.0189,-0.0194,-0.0165,-0.0145,-0.0135,-0.0108,-0.0097,-0.0067,-0.0083,-0.0072,-0.0048,-0.0035,-0.0002,-0.0039,0.0002,0.0004,-0.0002,0.0066,0.0075,0.0131,0.0044,0.0045,0.0046,0,-0.0265,-0.0241,-0.0184,-0.0161,-0.0148,-0.0122,-0.0092,-0.0068,-0.0044,-0.0039,-0.0018,-0.0019,0.0018,-0.0006,0.0046,0.002,0.0038,0.0047,0.0049,0.0054,0.0028,0.0075,0.0149,0.0158,0.0058,0.0057,0.0056,0,-0.0224,-0.0177,-0.0137,-0.0125,-0.0097,-0.0077,-0.0065,-0.0043,-0.0024,0.0002,0.0014,0.0044,0.0061,0.0085,0.0093,0.0075,0.0146,0.0123,0.0153,0.0153,0.0169,0.0168,0.0249,0.0177,0.0177,0.0177,0.0177,0,-0.0165,-0.013,-0.0118,-0.0093,-0.0053,-0.0048,-0.0008,0.0004,0.0024,0.0052,0.0049,0.0076,0.0085,0.0114,0.012,0.0164,0.0171,0.0178,0.0179,0.0179,0.0178,0.0191,0.0188,0.0179,0.0179,0.0178,0.0178,0,-0.0112,-0.0103,-0.0059,-0.0036,-0.0029,-0.0001,0.002,0.0045,0.0054,0.0091,0.01,0.0115,0.0149,0.0159,0.0201,0.0205,0.0257,0.0254,0.0249,0.0249,0.028,0.0277,0.0373,0.0387,0.0304,0.0305,0.0306,0,-0.0075,-0.0047,-0.0021,-0.0003,0.0011,0.0041,0.006,0.0066,0.0087,0.0116,0.0139,0.0172,0.02,0.0255,0.0271,0.0303,0.0302,0.0333,0.0307,0.0306,0.0305,0.0304,0.0308,0.0339,0.034,0.034,0.0341,0,-0.0008,-0.0004,0.0023,0.0053,0.0076,0.0099,0.0122,0.0138,0.0148,0.0171,0.0206,0.0228,0.027,0.0305,0.0337,0.0352,0.0349,0.0349,0.0358,0.0359,0.0355,0.036,0.0264,0.0347,0.0346,0.0346,0.0346,0.0345,0.004,0.0065,0.0087,0.0119,0.0137,0.0158,0.0184,0.0197,0.0225,0.026,0.0262,0.0301,0.0326,0.0369,0.0386,0.0417,0.0408,0.0421,0.0424,0.0428,0.0432,0.0349,0.0423,0.0423,0.0423,0.0423,0.0422,0,0.0108,0.0123,0.0151,0.0184,0.0209,0.0203,0.0228,0.025,0.0284,0.0307,0.0334,0.0376,0.0409,0.0428,0.0462,0.0484,0.0483,0.0493,0.0492,0.0496,0.0436,0.0426,0.0492,0.0492,0.0492,0.0492,0.0492,0.0492,0.0147,0.0189,0.0196,0.0247,0.0262,0.0299,0.0315,0.0336,0.0354,0.04,0.0428,0.044,0.0462,0.0498,0.0529,0.0534,0.0548,0.0558,0.0563,0.0507,0.05,0.0493,0.0483,0.0561,0.0561,0.062,0.062,0.0621]},{"header":{"parameterUnit":"m.s-1","parameterCategory":1,"la1":30.2991,"la2":30.254,"lo1":-89.0895,"lo2":-89.0444,"dy":0.0017,"dx":0.0017,"nx":28,"ny":28,"refTime":"2024-03-28T03:00:00:Z","depth":0,"parameterNumber":3,"parameterNumberName":"V-component_of_WINDS"},"data":[0,0,0,0,0,0,0,0,0,0,0,0,0,0,0,0,0,0,0,0,0,0,0,0,0,0,0,0,0,0,0,0,0,0,0,0,0,0,0,0,0,0,0,0,0,0,0,0,0,0,0,0,0,0,0,0,0,0,-5.1509,-5.1509,0,-5.1575,-5.1576,-5.1577,-5.1577,-5.1576,-5.1576,-5.1575,-5.1638,-5.164,-5.1643,0,0,0,0,0,0,0,0,0,0,0,0,0,-5.1378,-5.1381,-5.1508,-5.1509,-5.151,-5.1575,-5.1576,-5.1577,-5.1577,-5.1576,-5.1575,-5.1574,-5.1637,-5.164,-5.1643,0,0,0,0,0,0,0,0,0,0,0,0,0,-5.1439,-5.1381,-5.1508,-5.1518,-5.152,-5.1575,-5.1576,-5.1577,-5.1578,-5.1576,-5.1575,-5.1574,-5.1636,-5.164,-5.1643,-5.1691,0,0,-5.1654,-5.1656,0,0,0,0,0,0,0,0,-5.1435,-5.1443,-5.1516,-5.1518,-5.152,-5.1567,-5.1553,-5.1615,-5.1578,-5.1556,-5.1575,-5.1573,-5.1615,-5.162,-5.1635,-5.1694,-5.1696,-5.1655,-5.1657,-5.1659,-5.166,0,0,0,0,0,0,0,-5.1431,-5.1441,-5.1535,-5.1517,-5.1519,-5.1519,-5.1526,-5.1565,-5.1591,-5.1557,-5.1558,-5.1566,-5.1615,-5.1632,-5.1637,-5.1697,-5.1655,-5.1658,-5.166,-5.1662,-5.1801,-5.1803,0,0,0,0,0,0,-5.1426,-5.1437,-5.1533,-5.1537,-5.1474,-5.1522,-5.153,-5.1553,-5.1591,-5.1596,-5.1567,-5.1566,-5.1626,-5.1632,-5.1639,-5.1699,-5.1659,-5.1662,-5.1664,-5.18,-5.1802,-5.1803,0,0,0,0,0,0,-5.1423,-5.1434,-5.153,-5.1487,-5.1499,-5.1526,-5.1551,-5.1555,-5.1571,-5.1598,-5.1602,-5.1579,-5.1625,-5.1634,-5.1679,-5.1701,-5.1664,-5.1667,-5.1798,-5.18,-5.1802,-5.1819,0,0,0,0,0,0,-5.1419,-5.1433,-5.1452,-5.1488,-5.1502,-5.157,-5.1552,-5.1557,-5.1578,-5.1577,-5.161,-5.1615,-5.1625,-5.1674,-5.1683,-5.1706,-5.167,-5.1796,-5.1799,-5.1802,-5.1817,-5.1822,-5.1826,0,0,0,0,0,-5.1414,-5.1452,-5.1453,-5.1464,-5.1526,-5.1571,-5.1579,-5.1592,-5.158,-5.1599,-5.1617,-5.1614,-5.1697,-5.1678,-5.1688,-5.1713,-5.1795,-5.1798,-5.1801,-5.1815,-5.1821,-5.1826,0,0,0,0,0,0,-5.1416,-5.1457,-5.1458,-5.1509,-5.1537,-5.1571,-5.1595,-5.1597,-5.1627,-5.1625,-5.1638,-5.1645,-5.1691,-5.1706,-5.1684,-5.1762,-5.1744,-5.175,-5.1751,-5.1757,-5.1762,-5.1757,-5.1673,0,0,0,0,0,-5.1423,-5.1457,-5.149,-5.1532,-5.1546,-5.1569,-5.1589,-5.1597,-5.1625,-5.1636,-5.1657,-5.1684,-5.1716,-5.1737,-5.1768,-5.1819,-5.1827,-5.1841,-5.1846,-5.1849,-5.1854,-5.1884,-5.1891,-5.1814,-5.1814,-5.1814,0,0,-5.1436,-5.1463,-5.1483,-5.1533,-5.1556,-5.1591,-5.1578,-5.1615,-5.1641,-5.1641,-5.1686,-5.1703,-5.1733,-5.1782,-5.1804,-5.1796,-5.1877,-5.1854,-5.1856,-5.1859,-5.1888,-5.1896,-5.1902,-5.1817,-5.1816,-5.1816,0,0,-5.1478,-5.1502,-5.154,-5.1564,-5.16,-5.1615,-5.1624,-5.1659,-5.1671,-5.1717,-5.1718,-5.1749,-5.1804,-5.1827,-5.1845,-5.19,-5.1899,-5.1909,-5.1934,-5.1963,-5.1969,-5.1974,-5.1996,-5.2003,-5.1914,-5.1914,-5.1914,0,-5.149,-5.1544,-5.1559,-5.1598,-5.162,-5.1625,-5.1664,-5.1685,-5.1728,-5.1743,-5.1734,-5.1806,-5.1826,-5.1882,-5.1896,-5.191,-5.1921,-5.1906,-5.1967,-5.1973,-5.1978,-5.1998,-5.2006,-5.1915,-5.1915,-5.1915,-5.1915,0,-5.1558,-5.1595,-5.1622,-5.1667,-5.1692,-5.1731,-5.1751,-5.1775,-5.1781,-5.1797,-5.1844,-5.187,-5.1908,-5.1921,-5.1926,-5.1978,-5.1972,-5.1965,-5.1947,-5.1987,-5.2006,-5.2014,-5.1917,-5.1916,-5.1916,-5.1916,0,0,-5.1602,-5.1657,-5.1667,-5.1688,-5.1729,-5.1758,-5.1797,-5.1836,-5.1857,-5.1887,-5.192,-5.1968,-5.1963,-5.1984,-5.1992,-5.2017,-5.2062,-5.2007,-5.2008,-5.2018,-5.2122,-5.2129,-5.2138,-5.2061,-5.2062,-5.2064,-5.2121,0,-5.165,-5.1722,-5.1738,-5.1799,-5.1835,-5.1841,-5.1875,-5.1903,-5.192,-5.1952,-5.1969,-5.2004,-5.1993,-5.2007,-5.2032,-5.2051,-5.2083,-5.2047,-5.2092,-5.2094,-5.2086,-5.2147,-5.2154,-5.2206,-5.2128,-5.2129,-5.213,0,-5.1715,-5.1751,-5.1817,-5.1856,-5.1871,-5.1902,-5.1941,-5.1971,-5.2004,-5.2014,-5.204,-5.2045,-5.2086,-5.2066,-5.2123,-5.2098,-5.2117,-5.213,-5.2132,-5.2137,-5.2115,-5.2156,-5.2223,-5.2231,-5.2142,-5.2141,-5.214,0,-5.1744,-5.1807,-5.1855,-5.1873,-5.1919,-5.1941,-5.1961,-5.1992,-5.2016,-5.2049,-5.2065,-5.2101,-5.2122,-5.215,-5.2165,-5.2149,-5.2221,-5.2202,-5.2231,-5.2231,-5.2246,-5.2245,-5.2319,-5.2257,-5.2257,-5.2256,-5.2256,0,-5.1796,-5.1837,-5.1869,-5.1899,-5.1945,-5.1963,-5.2007,-5.2026,-5.2055,-5.2089,-5.2094,-5.2125,-5.2144,-5.2177,-5.2189,-5.2235,-5.2243,-5.2253,-5.2256,-5.2253,-5.2252,-5.2267,-5.2264,-5.2259,-5.2258,-5.2258,-5.2257,0,-5.1835,-5.1858,-5.1912,-5.1953,-5.1964,-5.1996,-5.203,-5.2059,-5.2077,-5.2119,-5.213,-5.2157,-5.2197,-5.2215,-5.2263,-5.2271,-5.2325,-5.2324,-5.2315,-5.2316,-5.2345,-5.2342,-5.2431,-5.2444,-5.2372,-5.2372,-5.2373,0,-5.1868,-5.19,-5.1945,-5.197,-5.1991,-5.2029,-5.2055,-5.2073,-5.2099,-5.2141,-5.2165,-5.2206,-5.224,-5.2303,-5.2326,-5.2364,-5.2365,-5.2394,-5.237,-5.2368,-5.2368,-5.2366,-5.237,-5.2398,-5.2398,-5.2399,-5.24,0,-5.1925,-5.1936,-5.1973,-5.2015,-5.2046,-5.2079,-5.2112,-5.2131,-5.2155,-5.2184,-5.2226,-5.2253,-5.2305,-5.2345,-5.2385,-5.2404,-5.2406,-5.2407,-5.2416,-5.2414,-5.2408,-5.2414,-5.2328,-5.2405,-5.2404,-5.2404,-5.2404,-5.2403,-5.1963,-5.1993,-5.203,-5.2072,-5.21,-5.2131,-5.2162,-5.2184,-5.2221,-5.2266,-5.2275,-5.232,-5.2354,-5.2408,-5.2429,-5.2464,-5.2457,-5.247,-5.2473,-5.2476,-5.2479,-5.2402,-5.2471,-5.2471,-5.2471,-5.2471,-5.247,0,-5.2021,-5.2047,-5.2085,-5.2133,-5.2166,-5.2168,-5.2205,-5.2232,-5.2273,-5.2305,-5.234,-5.239,-5.243,-5.2457,-5.2498,-5.2521,-5.2523,-5.2531,-5.253,-5.2535,-5.2482,-5.2471,-5.2529,-5.2529,-5.2529,-5.2529,-5.2529,-5.2529,-5.2056,-5.2107,-5.2123,-5.2189,-5.2213,-5.226,-5.2281,-5.231,-5.2337,-5.2393,-5.2428,-5.2446,-5.2477,-5.252,-5.2557,-5.2564,-5.258,-5.2588,-5.2595,-5.2545,-5.2539,-5.2533,-5.2523,-5.2591,-5.2591,-5.2646,-5.2646,-5.2647]}]]